Hourly Data Report for July 10, 2016

TORONTO CITY
ONTARIO

43°40'00.000" N
79°24'00.000" W
112.50 m
6158355
71508
XTO

Download Data

Hourly Data (July 2016)
Hourly Data Report for July 10, 2016
TIME
LST
Temp Definition
°C
Dew Point Definition
°C
Rel Hum Definition
%
Precip. Amount Definition
mm

Wind Dir Definition
10's deg

Wind Spd Definition
km/h
Visibility Definition
km
Stn Press Definition
kPa
Hmdx Definition


Wind Chill Definition


Weather Definition


00:00 20.1 15.6 75 0.0 LegendMM LegendMM   99.76     LegendNANA
01:00 19.7 15.4 76 0.0 LegendMM LegendMM   99.82     LegendNANA
02:00 18.6 14.8 79 0.0 LegendMM LegendMM   99.85     LegendNANA
03:00 18.0 14.3 79 0.0 LegendMM LegendMM   99.92     LegendNANA
04:00 17.7 14.0 79 0.0 LegendMM LegendMM   99.94     LegendNANA
05:00 17.6 13.5 77 0.0 LegendMM LegendMM   100.02     LegendNANA
06:00 17.9 13.5 75 0.0 LegendMM LegendMM   100.10     LegendNANA
07:00 19.5 13.4 68 0.0 LegendMM LegendMM   100.13     LegendNANA
08:00 21.7 13.8 61 0.0 LegendMM LegendMM   100.20 25   LegendNANA
09:00 22.9 13.0 54 0.0 LegendMM LegendMM   100.21 26   LegendNANA
10:00 25.7 14.2 49 0.0 LegendMM LegendMM   100.26 29   LegendNANA
11:00 25.6 12.7 45 0.0 LegendMM LegendMM   100.24 28   LegendNANA
12:00 27.7 12.5 39 0.0 LegendMM LegendMM   100.23 30   LegendNANA
13:00 27.2 10.5 35 0.0 LegendMM LegendMM   100.26 29   LegendNANA
14:00 27.5 10.1 34 0.0 LegendMM LegendMM   100.25 29   LegendNANA
15:00 28.6 10.9 33 0.0 LegendMM LegendMM   100.22 30   LegendNANA
16:00 28.4 11.8 36 0.0 LegendMM LegendMM   100.20 31   LegendNANA
17:00 26.4 12.3 41 0.0 LegendMM LegendMM   100.22 29   LegendNANA
18:00 25.5 12.4 44 0.0 LegendMM LegendMM   100.24 28   LegendNANA
19:00 25.3 12.6 45 0.0 LegendMM LegendMM   100.25 28   LegendNANA
20:00 23.0 12.3 51 0.0 LegendMM LegendMM   100.27 25   LegendNANA
21:00 23.5 12.1 49 0.0 LegendMM LegendMM   100.33 26   LegendNANA
22:00 22.9 11.2 48 0.0 LegendMM LegendMM   100.34 25   LegendNANA
23:00 21.6 11.3 52 0.0 LegendMM LegendMM   100.37     LegendNANA

Notes on Data Quality.

Legend

  • E = Estimated
  • M = Missing
  • NA = Not Available*
  • [empty] = Indicates an unobserved value
Date modified: